Flag for France Weather past 2 weeks in Dijon, France

Now
37 °F

Clear.


Feels Like: 37 °F
Forecast: 30 / 39 °F
Wind: No wind

Location: Dijon Airport

Current Time: Dec 22, 2014 at 7:06:51 PM

Latest Report: Dec 22, 2014 at 6:30 PM


Visibility: N/A

Pressure: 30.42 "Hg

Humidity: 87%

Dew point: 34 °F

Location of DijonLocation

Historic Weather in Dijon — Graph

°F

Dijon temperature yesterday

Maximum temperature yesterday: 50 °F (at 12:30 PM)
Minimum temperature yesterday: 36 °F (at 4:30 AM)
Average temperature yesterday: 43 °F

Past Weeks' High & Low Weather Summary

 TemperatureHumidityPressure
High55 °F (Dec 18, 4:00 PM)100% (Dec 8, 3:00 AM)30.60 "Hg (Dec 8, 3:00 AM)
Low30 °F (Dec 10, 1:30 AM)58% (Dec 21, 1:00 PM)29.83 "Hg (Dec 13, 2:30 AM)
Average43 °F90%30.18 "Hg
* Reported Dec 7 6:00 PM — Dec 22 6:00 PM, Dijon, Weather by CustomWeather, © 2014

Note: Actual official high and low records may vary slightly from our data, if they occured in-between our weather recording intervals... More about our weather records

Advertising

Dijon weather history for previous 24 hours

 ConditionsComfort  
Time TempWeatherWind HumidityBarometerVisibility
6:00 PM
Dec 22
39 °FClear.3 mph87%30.42 "HgN/A
5:30 PM39 °FClear.6 mph87%30.42 "HgN/A
5:00 PM41 °FClear.8 mph87%30.42 "HgN/A
4:30 PM43 °FClear.8 mph81%30.42 "HgN/A
4:00 PM45 °FClear.9 mph76%30.42 "HgN/A
3:30 PM45 °FClear.8 mph76%30.42 "HgN/A
3:00 PM45 °FClear.8 mph76%30.42 "HgN/A
2:30 PM46 °FClear.8 mph71%30.45 "HgN/A
2:00 PM46 °FClear.8 mph76%30.45 "HgN/A
1:30 PM45 °FClear.9 mph76%30.45 "HgN/A
1:00 PM46 °FClear.8 mph71%30.48 "HgN/A
12:30 PM46 °FClear.6 mph71%30.48 "HgN/A
12:00 PM45 °FClear.8 mph76%30.48 "HgN/A
11:30 AM45 °FClear.10 mph76%30.48 "HgN/A
11:00 AM43 °FClear.7 mph81%30.51 "HgN/A
10:30 AM43 °FClear.7 mph81%30.51 "HgN/A
10:00 AM41 °FPartly sunny.7 mph81%30.51 "HgN/A
9:30 AM41 °FOvercast.6 mph87%30.51 "HgN/A
9:00 AM39 °FOvercast.7 mph87%30.51 "HgN/A
8:30 AM39 °FOvercast.6 mph87%30.48 "HgN/A
8:00 AM39 °FOvercast.6 mph87%30.48 "HgN/A
7:30 AM39 °FOvercast.5 mph87%30.48 "HgN/A
7:00 AM39 °FOvercast.5 mph93%30.48 "HgN/A
6:30 AM39 °FOvercast.5 mph93%30.48 "HgN/A
6:00 AM41 °FOvercast.3 mph87%30.48 "HgN/A
5:30 AM41 °FOvercast.5 mph87%30.48 "HgN/A
4:30 AM41 °FOvercast.5 mph81%30.51 "HgN/A
3:30 AM43 °FOvercast.5 mph76%30.51 "HgN/A
3:00 AM43 °FOvercast.5 mph76%30.51 "HgN/A
2:30 AM43 °FOvercast.5 mph76%30.51 "HgN/A
2:00 AM43 °FOvercast.6 mph76%30.54 "HgN/A
1:30 AM43 °FOvercast.5 mph76%30.54 "HgN/A
1:00 AM43 °FOvercast.7 mph71%30.54 "HgN/A
12:30 AM43 °FOvercast.7 mph76%30.54 "HgN/A
12:00 AM43 °FOvercast.5 mph76%30.54 "HgN/A
11:30 PM
Dec 21
43 °FOvercast.6 mph76%30.54 "HgN/A
11:00 PM45 °FOvercast.7 mph71%30.57 "HgN/A
10:30 PM45 °FOvercast.8 mph71%30.57 "HgN/A
10:00 PM45 °FOvercast.6 mph71%30.57 "HgN/A
9:30 PM45 °FOvercast.5 mph76%30.57 "HgN/A
9:00 PM45 °FOvercast.5 mph71%30.57 "HgN/A
8:30 PM45 °FOvercast.6 mph71%30.57 "HgN/A
8:00 PM45 °FOvercast.7 mph71%30.57 "HgN/A
7:30 PM45 °FOvercast.7 mph71%30.57 "HgN/A
7:00 PM45 °FOvercast.7 mph76%30.57 "HgN/A
Weather by CustomWeather, © 2014

See weather overviewHow to use our weather pages